TimeBST,TemperatureF,Dew PointF,Humidity,Sea Level PressureIn,VisibilityMPH,Wind Direction,Wind SpeedMPH,Gust SpeedMPH,PrecipitationIn,Events,Conditions,WindDirDegrees,DateUTC
12:20 AM,57.2,44.6,63,29.83,-9999.0,NE,9.2,-,N/A,,Clear,50,2013-05-07 23:20:00
12:50 AM,57.2,42.8,59,29.80,-9999.0,ENE,11.5,-,N/A,,Clear,60,2013-05-07 23:50:00
1:20 AM,55.4,42.8,63,29.80,-9999.0,East,11.5,-,N/A,,Clear,80,2013-05-08 00:20:00
1:50 AM,55.4,41.0,58,29.80,-9999.0,ENE,11.5,-,N/A,,Clear,70,2013-05-08 00:50:00
2:20 AM,53.6,41.0,62,29.77,-9999.0,ENE,12.7,-,N/A,,Clear,70,2013-05-08 01:20:00
2:50 AM,51.8,39.2,62,29.77,6.2,ENE,12.7,-,N/A,,Unknown,70,2013-05-08 01:50:00
3:20 AM,51.8,39.2,62,29.77,6.2,ENE,12.7,-,N/A,,Unknown,70,2013-05-08 02:20:00
3:50 AM,51.8,41.0,67,29.74,6.2,ENE,12.7,-,N/A,,Unknown,70,2013-05-08 02:50:00
4:20 AM,51.8,41.0,67,29.74,-9999.0,East,13.8,-,N/A,,Clear,80,2013-05-08 03:20:00
4:50 AM,50.0,41.0,71,29.71,-9999.0,East,11.5,-,N/A,,Clear,80,2013-05-08 03:50:00
5:20 AM,51.8,41.0,67,29.71,6.2,East,12.7,-,N/A,,Partly Cloudy,80,2013-05-08 04:20:00
5:50 AM,51.8,41.0,67,29.68,6.2,East,12.7,-,N/A,,Unknown,80,2013-05-08 04:50:00
6:20 AM,51.8,42.8,71,29.68,-9999.0,ENE,12.7,-,N/A,,Clear,70,2013-05-08 05:20:00
6:50 AM,51.8,42.8,71,29.65,-9999.0,East,16.1,-,N/A,,Clear,80,2013-05-08 05:50:00
7:20 AM,51.8,42.8,71,29.65,-9999.0,East,16.1,-,N/A,,Clear,80,2013-05-08 06:20:00
7:50 AM,51.8,44.6,76,29.62,-9999.0,East,13.8,-,N/A,,Clear,80,2013-05-08 06:50:00
8:20 AM,51.8,44.6,76,29.62,6.2,East,15.0,-,N/A,,Partly Cloudy,80,2013-05-08 07:20:00
8:50 AM,51.8,44.6,76,29.59,6.2,East,15.0,-,N/A,,Partly Cloudy,80,2013-05-08 07:50:00
9:20 AM,53.6,46.4,77,29.59,5.6,ENE,16.1,-,N/A,,Partly Cloudy,70,2013-05-08 08:20:00
9:50 AM,53.6,46.4,77,29.56,6.2,ENE,18.4,-,N/A,,Partly Cloudy,70,2013-05-08 08:50:00
10:20 AM,53.6,48.2,82,29.56,5.6,ENE,13.8,-,N/A,Rain,Light Rain,60,2013-05-08 09:20:00
10:50 AM,55.4,48.2,77,29.53,6.2,ENE,17.3,-,N/A,,Partly Cloudy,70,2013-05-08 09:50:00
11:20 AM,55.4,48.2,77,29.53,6.2,ENE,13.8,-,N/A,,Mostly Cloudy,60,2013-05-08 10:20:00
11:50 AM,57.2,48.2,72,29.50,6.2,East,17.3,-,N/A,Rain,Light Rain,90,2013-05-08 10:50:00
12:20 PM,57.2,48.2,72,29.50,6.2,East,20.7,-,N/A,Rain,Light Rain,100,2013-05-08 11:20:00
12:50 PM,55.4,50.0,82,29.47,5.6,ENE,13.8,-,N/A,Rain,Light Rain,70,2013-05-08 11:50:00
1:20 PM,55.4,51.8,88,29.47,6.2,ENE,15.0,-,N/A,Rain,Light Rain,70,2013-05-08 12:20:00
1:50 PM,57.2,51.8,82,29.47,3.7,ESE,17.3,-,N/A,Rain,Light Rain,110,2013-05-08 12:50:00
2:20 PM,57.2,51.8,82,29.44,6.2,ESE,18.4,-,N/A,Rain,Light Rain,110,2013-05-08 13:20:00
2:50 PM,57.2,51.8,82,29.44,4.3,ESE,17.3,-,N/A,Rain,Light Rain,110,2013-05-08 13:50:00
3:20 PM,57.2,51.8,82,29.44,6.2,SE,13.8,25.3,N/A,Rain,Light Rain,130,2013-05-08 14:20:00
3:50 PM,55.4,50.0,82,29.47,6.2,SSE,16.1,-,N/A,,Mostly Cloudy,150,2013-05-08 14:50:00
4:20 PM,55.4,50.0,82,29.47,6.2,SSE,15.0,-,N/A,,Mostly Cloudy,150,2013-05-08 15:20:00
4:50 PM,55.4,50.0,82,29.47,6.2,SE,15.0,-,N/A,,Mostly Cloudy,140,2013-05-08 15:50:00
5:20 PM,55.4,48.2,77,29.47,6.2,SSE,12.7,-,N/A,,Mostly Cloudy,150,2013-05-08 16:20:00
5:50 PM,55.4,48.2,77,29.47,6.2,SSE,11.5,-,N/A,,Mostly Cloudy,150,2013-05-08 16:50:00
6:20 PM,53.6,48.2,82,29.47,6.2,SSE,13.8,-,N/A,,Mostly Cloudy,150,2013-05-08 17:20:00
6:50 PM,53.6,48.2,82,29.47,6.2,SSE,13.8,-,N/A,,Mostly Cloudy,160,2013-05-08 17:50:00
7:20 PM,53.6,46.4,77,29.47,6.2,SSE,11.5,-,N/A,,Scattered Clouds,160,2013-05-08 18:20:00
7:50 PM,53.6,46.4,77,29.44,6.2,SSE,15.0,-,N/A,,Mostly Cloudy,160,2013-05-08 18:50:00
8:20 PM,51.8,46.4,82,29.47,6.2,SSE,12.7,-,N/A,,Scattered Clouds,150,2013-05-08 19:20:00
8:50 PM,50.0,44.6,82,29.47,6.2,SSE,8.1,-,N/A,,Scattered Clouds,150,2013-05-08 19:50:00
9:20 PM,50.0,42.8,76,29.47,6.2,ESE,8.1,-,N/A,,Scattered Clouds,120,2013-05-08 20:20:00
9:50 PM,50.0,42.8,76,29.47,6.2,SE,11.5,-,N/A,,Scattered Clouds,130,2013-05-08 20:50:00
10:20 PM,48.2,42.8,82,29.50,6.2,SSE,11.5,-,N/A,,Scattered Clouds,150,2013-05-08 21:20:00
10:50 PM,48.2,42.8,82,29.50,-9999.0,SE,6.9,-,N/A,,Clear,130,2013-05-08 21:50:00
11:20 PM,48.2,42.8,82,29.50,6.2,SSE,9.2,-,N/A,,Partly Cloudy,160,2013-05-08 22:20:00
11:50 PM,50.0,42.8,76,29.50,6.2,South,11.5,-,N/A,,Partly Cloudy,170,2013-05-08 22:50:00